Location: Ferris
(32.5340°N, 96.6656°W)
Time: 10:29:24
(UTC+00:00)

IUS-17 SRM-1 - Pass Details

Date: 11 February 2026
Orbit: 313 x 27232 km, 28.1° (Epoch: 7 March)

Event Time Altitude Azimuth Distance (km) Brightness Sun altitude
Exits shadow 11:56:27 26° 245° (WSW) 1,270 4.2 -16.7°
Maximum altitude 11:58:31 55° 177° (S) 1,078 4.3 -16.2°
Drops below altitude 10° 12:12:00 10° 103° (ESE) 6,744 9.8 -13.4°
Sets 12:24:59 0° 102° (ESE) 11,493 11.8 -10.7°
